Location: ????????
(60.4333°N, 46.4710°E)
Time: 19:45:52
(UTC+00:00)

Cosmos 1805 Rocket - Pass Details

Date: 25 November 2020
Orbit: 605 x 631 km, 82.5° (Epoch: 17 January)

Event Time Altitude Azimuth Distance (km) Brightness Sun altitude
Rises 14:07:44 0° 345° (NNW) 2,941 7.0 -14.1°
Reaches altitude 10° 14:10:00 10° 344° (NNW) 2,029 6.2 -14.3°
Maximum altitude 14:14:30 79° 259° (W) 651 3.7 -14.9°
Drops below altitude 10° 14:18:57 10° 173° (S) 2,007 6.3 -15.4°
Sets 14:21:10 0° 172° (S) 2,907 7.1 -15.7°
